Location: Dampvalley
(47.9094°N, 6.1967°E)
Time: 14:51:47
(UTC+00:00)

Cosmos 1805 Rocket - Pass Details

Date: 05 March 2021
Orbit: 605 x 630 km, 82.5° (Epoch: 18 April)

Event Time Altitude Azimuth Distance (km) Brightness Sun altitude
Rises 04:56:44 0° 342° (NNW) 2,933 6.9 -12.8°
Reaches altitude 10° 04:59:08 10° 333° (NNW) 2,021 6.0 -12.4°
Maximum altitude 05:03:09 34° 270° (W) 1,052 4.2 -11.7°
Drops below altitude 10° 05:07:09 10° 206° (SSW) 2,004 5.9 -11.0°
Sets 05:09:31 0° 196° (SSW) 2,904 6.8 -10.7°
